• In Österreich
  • Länderverzeichnis
  • Für 7 Tage
  • Wassertemperatur
  • Satellitenkarten
  • Wetterkarte
  • News
  • Widgets
  • user-avatar
    Anmelden

    Stündliche Wetter Kabatnya

    Heute, 18 September, Dienstag

    Zeit Temperatur Niederschläge Wind Luftdruck Luftfeuchtigkeit
    00:00 +13°C° 0 mm 1 m/S 743 mmHg 67%
    01:00 +13°C° 0 mm 1 m/S 743 mmHg 68%
    02:00 +13°C° 0 mm 1 m/S 743 mmHg 68%
    03:00 +13°C° 0 mm 1 m/S 743 mmHg 69%
    04:00 +13°C° 0 mm 1 m/S 743 mmHg 70%
    05:00 +12°C° 0 mm 1 m/S 743 mmHg 71%
    06:00 +14°C° 0 mm 2 m/S 743 mmHg 68%
    07:00 +15°C° 0 mm 2 m/S 743 mmHg 66%
    08:00 +17°C° 0 mm 2 m/S 743 mmHg 61%
    09:00 +18°C° 0 mm 2 m/S 743 mmHg 56%
    10:00 +20°C° 0 mm 2 m/S 743 mmHg 52%
    11:00 +21°C° 0 mm 2 m/S 743 mmHg 48%
    12:00 +23°C° 0 mm 2 m/S 743 mmHg 46%
    13:00 +24°C° 0 mm 2 m/S 743 mmHg 44%
    14:00 +25°C° 0 mm 2 m/S 743 mmHg 42%
    15:00 +24°C° 0 mm 2 m/S 743 mmHg 45%
    16:00 +24°C° 0 mm 1 m/S 742 mmHg 49%
    17:00 +23°C° 0 mm 1 m/S 742 mmHg 52%
    18:00 +22°C° 0 mm 1 m/S 742 mmHg 55%
    19:00 +20°C° 0 mm 1 m/S 742 mmHg 58%
    20:00 +18°C° 0 mm 1 m/S 742 mmHg 61%
    21:00 +18°C° 0 mm 1 m/S 742 mmHg 62%
    22:00 +18°C° 0 mm 1 m/S 742 mmHg 63%
    23:00 +16°C° 0 mm 1 m/S 742 mmHg 64%

    Morgen, 19 September, Mittwoch

    Zeit Temperatur Niederschläge Wind Luftdruck Luftfeuchtigkeit
    00:00 +16°C° 0 mm 1 m/S 742 mmHg 65%
    01:00 +15°C° 0 mm 1 m/S 742 mmHg 66%
    02:00 +15°C° 0 mm 1 m/S 743 mmHg 67%
    03:00 +15°C° 0 mm 1 m/S 742 mmHg 68%
    04:00 +15°C° 0 mm 1 m/S 742 mmHg 69%
    05:00 +14°C° 0 mm 1 m/S 742 mmHg 70%
    06:00 +16°C° 0 mm 1 m/S 743 mmHg 67%
    07:00 +18°C° 0 mm 1 m/S 743 mmHg 64%
    08:00 +19°C° 0 mm 1 m/S 743 mmHg 62%
    09:00 +20°C° 0 mm 2 m/S 743 mmHg 57%
    10:00 +23°C° 0 mm 2 m/S 743 mmHg 52%
    11:00 +25°C° 0 mm 3 m/S 743 mmHg 46%
    12:00 +25°C° 0 mm 3 m/S 743 mmHg 45%
    13:00 +26°C° 0 mm 3 m/S 743 mmHg 43%
    14:00 +27°C° 0 mm 3 m/S 743 mmHg 41%
    15:00 +26°C° 0 mm 3 m/S 743 mmHg 44%
    16:00 +25°C° 0 mm 2 m/S 742 mmHg 47%
    17:00 +25°C° 0 mm 2 m/S 742 mmHg 50%
    18:00 +23°C° 0 mm 2 m/S 742 mmHg 53%
    19:00 +21°C° 0 mm 1 m/S 742 mmHg 55%
    20:00 +20°C° 0 mm 1 m/S 742 mmHg 57%
    21:00 +18°C° 0 mm 2 m/S 742 mmHg 58%
    22:00 +18°C° 0 mm 2 m/S 742 mmHg 59%
    23:00 +17°C° 0 mm 2 m/S 742 mmHg 60%

    übermorgen, 20 September, Donnerstag

    Zeit Temperatur Niederschläge Wind Luftdruck Luftfeuchtigkeit
    00:00 +17°C° 0 mm 2 m/S 742 mmHg 61%
    01:00 +17°C° 0 mm 2 m/S 742 mmHg 62%
    02:00 +16°C° 0 mm 2 m/S 742 mmHg 62%
    03:00 +16°C° 0 mm 2 m/S 742 mmHg 63%
    04:00 +16°C° 0 mm 1 m/S 742 mmHg 63%
    05:00 +15°C° 0 mm 1 m/S 742 mmHg 64%
    06:00 +18°C° 0 mm 1 m/S 742 mmHg 62%
    07:00 +19°C° 0 mm 1 m/S 742 mmHg 59%
    08:00 +20°C° 0 mm 1 m/S 742 mmHg 57%
    09:00 +22°C° 0 mm 1 m/S 742 mmHg 51%
    10:00 +24°C° 0 mm 2 m/S 742 mmHg 46%
    11:00 +25°C° 0 mm 2 m/S 743 mmHg 41%
    12:00 +26°C° 0 mm 2 m/S 742 mmHg 39%
    13:00 +27°C° 0 mm 2 m/S 742 mmHg 37%
    14:00 +27°C° 0 mm 2 m/S 742 mmHg 35%
    15:00 +27°C° 0 mm 1 m/S 742 mmHg 39%
    16:00 +26°C° 0 mm 1 m/S 741 mmHg 42%
    17:00 +26°C° 0 mm 1 m/S 741 mmHg 45%
    18:00 +22°C° 0 mm 0 m/S 741 mmHg 47%
    19:00 +20°C° 0 mm 0 m/S 741 mmHg 49%
    20:00 +18°C° 0 mm 0 m/S 741 mmHg 51%
    21:00 +18°C° 0 mm 0 m/S 741 mmHg 53%
    22:00 +17°C° 0 mm 0 m/S 741 mmHg 55%
    23:00 +17°C° 0 mm 0 m/S 741 mmHg 56%

    21 September, Freitag

    Zeit Temperatur Niederschläge Wind Luftdruck Luftfeuchtigkeit
    00:00 +16°C° 0 mm 0 m/S 741 mmHg 57%
    01:00 +16°C° 0 mm 0 m/S 741 mmHg 58%
    02:00 +16°C° 0 mm 0 m/S 741 mmHg 59%
    03:00 +15°C° 0 mm 0 m/S 741 mmHg 60%
    04:00 +15°C° 0 mm 0 m/S 741 mmHg 61%
    05:00 +15°C° 0 mm 0 m/S 741 mmHg 62%
    06:00 +18°C° 0 mm 1 m/S 741 mmHg 59%
    07:00 +20°C° 0 mm 1 m/S 741 mmHg 57%
    08:00 +21°C° 0 mm 1 m/S 741 mmHg 55%
    09:00 +23°C° 0 mm 1 m/S 741 mmHg 50%
    10:00 +24°C° 0 mm 1 m/S 741 mmHg 46%
    11:00 +26°C° 0 mm 2 m/S 741 mmHg 41%
    12:00 +27°C° 0 mm 2 m/S 741 mmHg 39%
    13:00 +27°C° 0 mm 2 m/S 741 mmHg 37%
    14:00 +28°C° 0 mm 2 m/S 741 mmHg 35%
    15:00 +27°C° 0 mm 2 m/S 740 mmHg 39%
    16:00 +26°C° 0 mm 2 m/S 740 mmHg 42%
    17:00 +26°C° 0 mm 1 m/S 740 mmHg 45%
    18:00 +24°C° 0 mm 2 m/S 739 mmHg 47%
    19:00 +21°C° 0 mm 2 m/S 739 mmHg 49%
    20:00 +20°C° 0 mm 2 m/S 739 mmHg 51%
    21:00 +19°C° 0 mm 2 m/S 739 mmHg 52%
    22:00 +19°C° 0 mm 2 m/S 739 mmHg 53%
    23:00 +19°C° 0 mm 2 m/S 739 mmHg 54%

    22 September, Samstag

    Zeit Temperatur Niederschläge Wind Luftdruck Luftfeuchtigkeit
    00:00 +18°C° 0 mm 3 m/S 739 mmHg 55%
    01:00 +18°C° 0 mm 3 m/S 738 mmHg 57%
    02:00 +17°C° 0 mm 3 m/S 738 mmHg 58%
    03:00 +17°C° 0 mm 3 m/S 738 mmHg 58%
    04:00 +17°C° 0 mm 3 m/S 738 mmHg 59%
    05:00 +16°C° 0 mm 3 m/S 738 mmHg 59%
    06:00 +18°C° 0 mm 3 m/S 738 mmHg 58%
    07:00 +19°C° 0 mm 3 m/S 738 mmHg 56%
    08:00 +20°C° 0 mm 4 m/S 738 mmHg 54%
    09:00 +22°C° 0 mm 4 m/S 738 mmHg 49%
    10:00 +25°C° 0 mm 5 m/S 737 mmHg 44%
    11:00 +26°C° 0 mm 5 m/S 737 mmHg 38%
    12:00 +27°C° 0 mm 5 m/S 737 mmHg 37%
    13:00 +27°C° 0 mm 5 m/S 737 mmHg 35%
    14:00 +28°C° 0 mm 5 m/S 736 mmHg 34%
    15:00 +27°C° 0 mm 4 m/S 736 mmHg 37%
    16:00 +26°C° 0 mm 3 m/S 735 mmHg 40%
    17:00 +25°C° 0 mm 3 m/S 735 mmHg 44%
    18:00 +24°C° 0 mm 3 m/S 735 mmHg 46%
    19:00 +21°C° 0 mm 3 m/S 735 mmHg 48%
    20:00 +20°C° 0 mm 3 m/S 735 mmHg 50%
    21:00 +17°C° 0 mm 5 m/S 735 mmHg 54%
    22:00 +16°C° 0 mm 6 m/S 735 mmHg 58%
    23:00 +15°C° 0 mm 7 m/S 736 mmHg 62%

    23 September, Sonntag

    Zeit Temperatur Niederschläge Wind Luftdruck Luftfeuchtigkeit
    00:00 +12°C° 0.5 mm 7 m/S 736 mmHg 68%
    01:00 +10°C° 0.5 mm 8 m/S 736 mmHg 75%
    02:00 +7°C° 0.5 mm 8 m/S 737 mmHg 81%
    03:00 +7°C° 0.5 mm 8 m/S 737 mmHg 82%
    04:00 +6°C° 0.5 mm 7 m/S 737 mmHg 83%
    05:00 +7°C° 0.5 mm 6 m/S 738 mmHg 84%
    06:00 +8°C° 0 mm 6 m/S 738 mmHg 81%
    07:00 +8°C° 0 mm 6 m/S 738 mmHg 78%
    08:00 +9°C° 0 mm 6 m/S 738 mmHg 75%
    09:00 +11°C° 0 mm 6 m/S 739 mmHg 69%
    10:00 +13°C° 0 mm 6 m/S 739 mmHg 62%
    11:00 +14°C° 0 mm 6 m/S 739 mmHg 55%
    12:00 +15°C° 0 mm 6 m/S 739 mmHg 53%
    13:00 +15°C° 0 mm 6 m/S 738 mmHg 50%
    14:00 +16°C° 0 mm 6 m/S 738 mmHg 47%
    15:00 +16°C° 0 mm 5 m/S 738 mmHg 49%
    16:00 +15°C° 0 mm 5 m/S 738 mmHg 51%
    17:00 +15°C° 0 mm 4 m/S 738 mmHg 52%
    18:00 +13°C° 0 mm 3 m/S 738 mmHg 57%
    19:00 +12°C° 0 mm 3 m/S 738 mmHg 61%
    20:00 +10°C° 0 mm 2 m/S 738 mmHg 66%
    21:00 +10°C° 0 mm 2 m/S 738 mmHg 67%
    22:00 +11°C° 0 mm 1 m/S 738 mmHg 69%
    23:00 +10°C° 0 mm 1 m/S 738 mmHg 71%
    Mehr zeigen